Starlink 31263

operational
NORAD ID: 58832 Int'l Des: 2024-017 Owner: SPXS Country: US Constellation: starlink
LEOCIRCULAR

About Starlink 31263

Description loading...

Live Position

Loading 3D Globe...

Upcoming Passes

Altitude History

Altitude vs Time

uPlot chart will show altitude changes over time

Two-Line Element Set

1 58832U 24017G 25257.27379161 -.00000118 00000-0 70295-5 0 9996
2 58832 53.1577 296.1228 0001128 69.6043 290.5083 15.39609037 93266
Epoch: Sep 14, 2025 • Age: 44 hours

Current Status

Altitude 450.0 km
Velocity 7.64 km/s
Sub-Earth Point -9.96°S, 107.34°W
Launch Date Jan 24, 2024
Age 1.6 years
Type internet

Technical Details

Classification Payload
Mass 730.00 kg
Dry Mass 700.00 kg
Total Mass 730.00 kg
Length 0.30 m
Diameter 4.10 m
Span 29.00 m
Shape Box + pan
Manufacturer SPXS
Bus Type Starlink V2M
Phase Status In Orbit
Owner/State SPXS/US

Large Constellations

Loading constellations...